VK2TRB Weather Reports


time (UTC)temp
C
wind
direction
speed
KPH
gust
KPH
rain 1hr
cm
rain 24hr
cm
rain mn
cm
humidity
%
barometer
mb
20260503110338 17 24 4.8 8.0 0.18 0.30 0.18 94 1011.8
20260503090338 18 323 1.6 8.0 0.18 0.30 0.18 92 1011.6
20260503080339 18 335 0.0 8.0 0.18 0.30 0.18 91 1011.5
20260503071839 18 296 0.0 8.0 0.18 0.30 0.18 88 1011.3
20260503070338 18 296 0.0 8.0 0.18 0.30 0.18 87 1010.7
20260503060340 20 304 4.8 8.0 0.18 0.30 0.18 78 1010.0
20260503054839 21 296 4.8 8.0 0.18 0.30 0.18 73 1010.5
20260503053339 21 311 4.8 8.0 0.18 0.30 0.18 70 1010.7
20260503051839 21 292 6.4 8.0 0.18 0.30 0.18 70 1010.7
20260503050340 21 318 9.7 8.0 0.18 0.30 0.18 69 1010.6
20260503044840 22 5 8.0 8.0 0.18 0.30 0.18 67 1010.7
20260503043340 22 355 8.0 8.0 0.18 0.30 0.18 65 1010.7
20260503041839 22 335 3.2 8.0 0.18 0.30 0.18 64 1010.8
20260503040340 22 10 6.4 8.0 0.18 0.30 0.18 65 1010.8
20260503034840 22 5 3.2 8.0 0.18 0.30 0.18 64 1011.1
20260503033339 22 342 6.4 8.0 0.18 0.30 0.18 63 1011.3
20260503031840 22 342 9.7 8.0 0.18 0.30 0.18 61 1011.4
20260503030340 23 331 11.3 8.0 0.18 0.30 0.18 60 1011.5
20260503024840 23 10 14.5 8.0 0.18 0.30 0.18 61 1011.7
20260503023340 23 11 8.0 8.0 0.18 0.30 0.18 60 1011.9
20260503021839 23 5 11.3 8.0 0.18 0.30 0.18 61 1012.0
20260503020340 23 15 8.0 8.0 0.18 0.30 0.18 61 1012.3
20260503014841 22 350 6.4 8.0 0.18 0.30 0.18 61 1012.4
20260503013340 22 5 9.7 8.0 0.18 0.30 0.18 62 1012.5
20260503011841 22 5 8.0 8.0 0.18 0.30 0.18 60 1012.8
20260503010340 21 355 8.0 8.0 0.18 0.30 0.18 62 1013.0
20260503004840 21 312 9.7 8.0 0.18 0.30 0.18 63 1013.2
20260503001839 20 25 9.7 8.0 0.18 0.30 0.18 68 1013.7